Flag for Germany Weather past 2 weeks in Neustadt am Rübenberge, Lower Saxony, Germany

Now
70 °F

Mild.


Feels Like: 70 °F
Forecast: 62 / 75 °F
Wind: 10 mph from North

Location: Wunstorf Airport

Current Time: Jul 29, 2014 at 9:22:21 PM

Latest Report: Jul 29, 2014 at 8:20 PM


Visibility: 2 mi

Pressure: 29.77 "Hg

Humidity: 88%

Dew point: 66 °F

Location of Neustadt am RübenbergeLocation

Historic Weather in Neustadt am Rübenberge — Graph

°F

Neustadt am Rübenberge temperature yesterday

Maximum temperature yesterday: 82 °F (at 6:20 PM)
Minimum temperature yesterday: 59 °F (at 5:20 AM)
Average temperature yesterday: 70 °F

Past Weeks' High & Low Weather Summary

 TemperatureHumidityPressure
High90 °F (Jul 19, 2:20 PM)100% (Jul 16, 5:20 AM)30.18 "Hg (Jul 16, 5:20 AM)
Low-31 °F (Jul 25, 2:20 PM)31% (Jul 19, 2:20 PM)29.74 "Hg (Jul 29, 6:20 PM)
Average54 °F71%29.99 "Hg
* Reported Jul 14 7:20 PM — Jul 29 7:20 PM, Neustadt am Rübenberge, Weather by CustomWeather, © 2014

Note: Actual official high and low records may vary slightly from our data, if they occured in-between our weather recording intervals... More about our weather records

Advertising

Neustadt am Rübenberge weather history for previous 24 hours

 ConditionsComfort  
Time TempWeatherWind HumidityBarometerVisibility
7:20 PM
Jul 29
77 °FPartly sunny.7 mph69%29.74 "HgN/A
6:20 PM82 °FPartly sunny.7 mph51%29.74 "HgN/A
5:20 PM82 °FScattered clouds.6 mph51%29.77 "HgN/A
4:20 PM82 °FPartly sunny.7 mph51%29.77 "HgN/A
3:20 PM77 °FBroken clouds.3 mph65%29.80 "HgN/A
2:20 PM77 °FBroken clouds.3 mph61%29.83 "HgN/A
1:20 PM75 °FBroken clouds.1 mph65%29.83 "HgN/A
12:20 PM75 °FBroken clouds.5 mph65%29.83 "HgN/A
11:20 AM77 °FBroken clouds.5 mph65%29.83 "HgN/A
10:20 AM75 °FPartly sunny.6 mph69%29.86 "HgN/A
9:20 AM72 °FScattered clouds.7 mph78%29.83 "HgN/A
8:20 AM70 °FScattered clouds.6 mph83%29.83 "Hg5 mi
7:20 AM66 °FBroken clouds.5 mph88%29.83 "Hg4 mi
6:20 AM66 °FPassing clouds.3 mph88%29.83 "Hg4 mi
5:20 AM66 °FPassing clouds.1 mph88%29.83 "Hg4 mi
4:20 AM66 °FMild.2 mph88%29.83 "Hg2 mi
3:20 AM66 °FMild.3 mph94%29.86 "Hg2 mi
2:20 AM68 °FMild.6 mph88%29.86 "Hg2 mi
1:20 AM68 °FMild.5 mph88%29.86 "Hg2 mi
12:20 AM72 °FMild.2 mph78%29.86 "Hg3 mi
11:20 PM
Jul 28
70 °FMild.2 mph88%29.86 "Hg3 mi
10:20 PM73 °FMild.2 mph74%29.86 "Hg3 mi
9:20 PM73 °FMild.2 mph69%29.86 "Hg3 mi
Weather by CustomWeather, © 2014

See weather overviewHow to use our weather pages